This demonstration page uses our WeatherBlox Daily Observations layout. Learn more.

Left ArrowRight Arrow

41.12389, -100.76542

Hourly Observations for July 23, 2018

Temp ( °F °C ) Dew Point ( °F °C ) Humidity (%) Winds ( mph kmh ) Pressure ( in mb ) Visibility ( mi km ) Precip ( " mm )
12:53 am 00:53 Mostly Cloudy 74 23.3 72 22.2 94 94 SW 6 9 30.05 1018 10 16 0.00 0.00
1:53 am 01:53 Clear 72 22.2 72 22.2 100 100 Calm 30.04 1017 10 16 0.00 0.00
2:53 am 02:53 Clear 72 22.2 72 22.2 100 100 ENE 6 9 30.05 1018 8 13 0.00 0.00
3:53 am 03:53 Clear 72 22.2 72 22.2 100 100 ENE 5 7 30.07 1018 10 16 0.00 0.00
4:31 am 04:31 Partly Cloudy 72 22.2 72 22.2 100 100 NNE 6 9 30.03 1017 10 16 0.00 0.00
4:46 am 04:46 Mostly Cloudy 72 22.2 72 22.2 100 100 NE 5 7 30.03 1017 10 16 0.00 0.00
4:53 am 04:53 Mostly Cloudy 72 22.2 72 22.2 100 100 NE 6 9 30.08 1019 10 16 0.00 0.00
5:16 am 05:16 Partly Cloudy 72 22.2 71 21.7 97 97 ENE 8 13 30.03 1017 10 16 0.00 0.00
5:53 am 05:53 Clear 71 21.7 71 21.7 100 100 NNE 6 9 30.10 1019 10 16 0.00 0.00
6:35 am 06:35 Mostly Cloudy 70 21.1 69 20.6 97 97 NNE 10 17 30.09 1019 10 16 0.00 0.00
6:42 am 06:42 Partly Cloudy 70 21.1 69 20.6 97 97 NNE 9 15 30.09 1019 10 16 0.00 0.00
6:53 am 06:53 Partly Cloudy 70 21.1 69 20.6 97 97 NE 7 11 30.12 1020 10 16 0.00 0.00
7:53 am 07:53 Sunny 71 21.7 69 20.6 94 94 NE 13 20 30.15 1021 10 16 0.00 0.00
8:53 am 08:53 Sunny 74 23.3 67 19.4 79 79 NE 15 24 30.15 1021 10 16 0.00 0.00
9:53 am 09:53 Sunny 77 25 61 16.1 58 58 NE 9 15 30.17 1022 10 16 0.00 0.00
10:53 am 10:53 Sunny 79 26.1 59 15 50 50 NE 15 24 30.17 1022 10 16 0.00 0.00
11:53 am 11:53 Sunny 79 26.1 53 11.7 41 41 E 15 24 30.17 1022 10 16 0.00 0.00
12:53 pm 12:53 Sunny 81 27.2 53 11.7 38 38 ENE 12 19 30.17 1022 10 16 0.00 0.00
1:53 pm 13:53 Sunny 82 27.8 54 12.2 38 38 ENE 13 20 30.16 1022 10 16 0.00 0.00
2:53 pm 14:53 Sunny 84 28.9 56 13.3 38 38 E 15 24 30.16 1021 10 16 0.00 0.00
3:53 pm 15:53 Sunny 84 28.9 55 12.8 37 37 ENE 10 17 30.15 1021 10 16 0.00 0.00
4:53 pm 16:53 Sunny 81 27.2 54 12.2 39 39 ENE 10 17 30.14 1021 10 16 0.00 0.00
5:53 pm 17:53 Sunny 81 27.2 57 13.9 44 44 E 7 11 30.13 1020 10 16 0.00 0.00
6:53 pm 18:53 Sunny 79 26.1 58 14.4 49 49 E 8 13 30.13 1020 10 16 0.00 0.00
7:53 pm 19:53 Sunny 79 26.1 61 16.1 54 54 SE 6 9 30.14 1021 10 16 0.00 0.00
8:53 pm 20:53 Sunny 73 22.8 64 17.8 74 74 E 3 6 30.15 1021 10 16 0.00 0.00
9:53 pm 21:53 Clear 69 20.6 59 15 70 70 Calm 30.15 1021 10 16 0.00 0.00
10:53 pm 22:53 Clear 64 17.8 58 14.4 81 81 ESE 5 7 30.17 1022 10 16 0.00 0.00
11:53 pm 23:53 Clear 62 16.7 59 15 90 90 Calm 30.18 1022 10 16 0.00 0.00

Powered by AerisWeather